Weather reports worldwide

Advertisment
List/Sylt, Germany (10020): temperature & dewpoint: 07.07.2020 06:00:00 - 13.07.2020 06:00:00 (CEST)List/Sylt, Germany (10020): temperature 5cm & temperature -5cm: 07.07.2020 06:00:00 - 13.07.2020 06:00:00 (CEST)List/Sylt, Germany (10020): temperature -20cm: 07.07.2020 06:00:00 - 13.07.2020 06:00:00 (CEST)List/Sylt, Germany (10020): wind speed & gusts: 07.07.2020 06:00:00 - 13.07.2020 06:00:00 (CEST)List/Sylt, Germany (10020): wind direction: 07.07.2020 06:00:00 - 13.07.2020 06:00:00 (CEST)List/Sylt, Germany (10020): reduced air pressure: 07.07.2020 06:00:00 - 13.07.2020 06:00:00 (CEST)List/Sylt, Germany (10020): visibility: 07.07.2020 06:00:00 - 13.07.2020 06:00:00 (CEST)List/Sylt, Germany (10020): sunshine duration: 07.07.2020 06:00:00 - 13.07.2020 06:00:00 (CEST)List/Sylt, Germany (10020): precipitation: 07.07.2020 06:00:00 - 13.07.2020 06:00:00 (CEST)
Date & Time tt [°C] td [°C] tt 5cm [°C] tt -5cm [°C] tt -20cm [°C] ff [km/h] ff [kn] fx [km/h] fx [kn] dd ppp [hPa] vv [km] sd [min] rr [mm]
13.07.2020 06:00:00 13,2 9,4 11,9 15,1 16,2 21 11 29 16 W 1024,4 53 1 0,0
13.07.2020 05:00:00 13,1 9,6 11,4 15,3 16,3 20 11 29 16 W 1024,5 56 0 0,0
13.07.2020 04:00:00 13,2 9,7 11,5 15,5 16,5 19 10 33 18 W 1025,0 52 0 0,0
13.07.2020 03:00:00 13,5 10,0 11,9 15,8 16,7 22 12 32 18 W 1025,3 54 0 0,0
13.07.2020 02:00:00 13,9 10,2 12,7 16,0 16,8 22 12 35 19 W 1025,4 62 0 0,0
13.07.2020 01:00:00 14,0 10,3 13,0 16,3 17,0 24 13 34 18 W 1025,9 69 0 0,0
13.07.2020 00:00:00 13,9 10,4 12,3 16,6 17,2 20 11 31 17 W 1026,2 54 0 0,0
12.07.2020 23:00:00 14,0 10,6 12,4 17,1 17,3 20 11 27 15 W 1026,6 50 0 0,0
12.07.2020 22:00:00 14,2 11,0 12,9 17,7 17,5 18 10 29 16 W 1026,6 49 29 0,0
12.07.2020 21:00:00 15,2 10,7 15,2 18,3 17,6 19 10 35 19 WNW 1026,4 54 57 0,0
12.07.2020 20:00:00 15,8 11,0 17,4 19,0 17,6 25 14 37 20 W 1026,7 50 60 0,0
12.07.2020 19:00:00 16,6 10,9 20,0 19,8 17,5 29 15 41 22 W 1026,7 49 59 0,0
12.07.2020 18:00:00 16,6 11,1 21,6 20,4 17,2 32 17 43 23 WNW 1026,8 51 60 0,0
12.07.2020 17:00:00 17,1 11,0 22,9 20,5 16,9 32 17 45 24 W 1027,0 45 60 0,0
12.07.2020 16:00:00 18,0 10,9 24,0 20,2 16,4 33 18 48 26 W 1027,2 62 60 0,0
12.07.2020 15:00:00 17,7 10,2 24,4 19,3 16,0 29 16 46 25 W 1027,1 44 52 0,0
12.07.2020 14:00:00 16,5 9,5 21,7 18,0 15,7 30 16 44 24 W 1027,0 55 11 0,0
12.07.2020 13:00:00 16,5 10,0 22,0 17,0 15,5 32 17 43 23 W 1026,9 74 9 0,0
12.07.2020 12:00:00 15,7 9,7 18,6 16,3 15,4 26 14 39 21 W 1026,9 58 0 0,0
12.07.2020 11:00:00 15,6 9,9 18,1 15,9 15,2 28 15 41 22 W 1026,8 45 0 0,0
12.07.2020 10:00:00 15,3 9,1 17,4 15,3 15,2 30 16 41 22 W 1026,5 51 0 0,0
12.07.2020 09:00:00 14,7 8,7 16,1 15,0 15,1 30 16 44 24 W 1026,1 54 33 0,0
12.07.2020 08:00:00 14,8 9,3 16,3 14,4 15,2 30 16 45 24 WNW 1025,4 57 51 0,0
12.07.2020 07:00:00 14,0 8,0 13,5 14,2 15,3 32 17 44 24 WNW 1024,9 63 50 0,0
12.07.2020 06:00:00 13,5 8,5 12,3 14,2 15,4 32 17 44 24 WNW 1024,7 57 0 0,0
12.07.2020 05:00:00 13,3 8,1 11,9 14,4 15,5 29 16 45 24 WNW 1024,6 46 0 0,0
12.07.2020 04:00:00 13,5 8,8 12,6 14,6 15,6 31 17 45 25 WNW 1024,4 47 0 0,0
12.07.2020 03:00:00 13,5 8,2 12,4 14,8 15,8 33 18 46 25 WNW 1024,5 48 0 0,0
12.07.2020 02:00:00 13,6 8,6 12,4 14,9 15,9 29 16 38 21 WNW 1024,6 50 0 0,0
12.07.2020 01:00:00 13,7 8,9 12,6 15,1 16,1 27 15 39 21 WNW 1024,6 41 0 0,0
12.07.2020 00:00:00 13,2 8,0 11,7 15,3 16,2 24 13 36 20 WNW 1024,5 46 0 0,0
11.07.2020 23:00:00 13,6 8,3 12,2 15,7 16,4 28 15 38 20 WNW 1024,3 48 0 0,0
11.07.2020 22:00:00 13,7 8,9 12,6 16,1 16,5 24 13 40 22 WNW 1024,1 45 25 0,0
11.07.2020 21:00:00 14,4 8,5 14,6 16,6 16,6 25 13 38 21 WNW 1023,8 47 33 0,0
11.07.2020 20:00:00 14,6 8,0 15,3 17,2 16,7 27 15 41 22 WNW 1023,6 51 48 0,0
11.07.2020 19:00:00 15,4 8,8 19,4 17,7 16,7 24 13 40 22 WNW 1023,4 55 25 0,0
11.07.2020 18:00:00 14,9 8,3 16,2 18,1 16,6 29 15 40 22 WNW 1023,2 42 32 0,0
11.07.2020 17:00:00 14,7 8,2 15,9 18,4 16,4 29 16 47 26 WNW 1023,0 43 29 0,0
11.07.2020 16:00:00 15,9 9,0 20,2 18,4 16,2 33 18 45 25 WNW 1022,7 58 41 0,0
11.07.2020 15:00:00 14,5 9,5 14,7 17,7 16,1 34 18 45 24 WNW 1022,3 56 11 0,3
11.07.2020 14:00:00 14,9 9,4 17,8 17,7 15,9 36 19 51 28 W 1021,8 48 17 0,0
11.07.2020 13:00:00 14,8 10,2 15,7 17,7 15,6 31 17 49 26 WNW 1021,3 47 34 0,3
11.07.2020 12:00:00 15,3 8,1 18,9 17,3 15,3 39 21 51 28 WNW 1020,8 62 54 0,0
11.07.2020 11:00:00 16,2 8,8 20,6 16,0 15,1 37 20 53 28 WNW 1020,2 47 49 0,0
11.07.2020 10:00:00 14,6 8,4 15,9 15,1 15,0 35 19 51 28 WNW 1019,6 61 32 0,1
11.07.2020 09:00:00 14,5 7,9 16,8 14,6 15,0 35 19 50 27 WNW 1019,0 68 35 0,0
11.07.2020 08:00:00 12,9 8,9 11,6 14,3 15,1 24 13 52 28 W 1018,7 49 12 0,0
11.07.2020 07:00:00 13,2 8,0 12,9 14,1 15,2 32 17 51 27 WNW 1018,3 54 26 0,0
11.07.2020 06:00:00 13,3 6,5 12,2 14,1 15,3 32 17 45 24 WNW 1017,9 67 6 0,0
11.07.2020 05:00:00 13,0 6,6 11,5 14,2 15,4 30 16 48 26 WNW 1017,3 52 0 0,0
11.07.2020 04:00:00 13,0 7,9 11,1 14,4 15,5 32 17 45 24 WNW 1016,9 49 0 0,1
11.07.2020 03:00:00 13,4 8,0 12,9 14,6 15,6 33 18 50 27 WNW 1016,6 46 0 0,0
11.07.2020 02:00:00 13,7 8,9 13,1 14,7 15,8 37 20 54 29 WNW 1016,2 45 0 0,0
11.07.2020 01:00:00 13,4 8,0 12,4 14,8 15,9 41 22 55 30 WNW 1015,7 46 0 0,0
11.07.2020 00:00:00 13,3 7,6 12,2 15,1 16,1 36 20 54 29 WNW 1015,3 51 0 0,0
10.07.2020 23:00:00 13,6 7,9 12,8 15,4 16,3 42 23 53 29 WNW 1014,9 43 0 0,0
10.07.2020 22:00:00 13,6 7,5 13,0 15,9 16,4 39 21 55 30 WNW 1014,5 49 11 0,0
10.07.2020 21:00:00 13,9 7,5 13,8 16,4 16,5 40 22 56 30 WNW 1014,0 53 47 0,0
10.07.2020 20:00:00 14,9 7,7 16,7 17,0 16,6 44 24 59 32 NW 1013,6 47 34 0,0
10.07.2020 19:00:00 15,2 7,1 17,0 17,4 16,6 41 22 56 30 WNW 1013,3 65 8 0,0
10.07.2020 18:00:00 14,8 8,2 16,3 18,0 16,6 38 20 51 28 NW 1012,5 60 12 0,0
10.07.2020 17:00:00 15,2 7,7 18,2 18,4 16,4 33 18 49 26 WNW 1012,0 63 28 0,0
10.07.2020 16:00:00 16,1 8,1 21,6 18,2 16,2 35 19 49 26 NW 1011,4 47 27 0,0
10.07.2020 15:00:00 15,5 8,4 19,2 18,3 15,9 35 19 45 25 WNW 1010,8 70 46 0,0
10.07.2020 14:00:00 15,9 6,8 21,1 17,9 15,6 33 18 41 22 NNW 1010,1 75 34 0,0
10.07.2020 13:00:00 16,6 8,0 23,0 17,3 15,3 26 14 39 21 NNW 1009,8 72 35 0,0
10.07.2020 12:00:00 14,6 8,6 17,5 15,9 15,1 21 11 33 18 N 1009,9 62 1 0,0
10.07.2020 11:00:00 14,0 9,0 15,2 15,1 15,0 25 13 34 18 N 1009,5 59 0 0,0
10.07.2020 10:00:00 12,6 9,3 12,5 14,4 15,0 19 10 25 13 NNE 1009,4 57 0 0,0
10.07.2020 09:00:00 11,9 9,2 11,3 14,2 15,0 16 9 23 13 NNE 1009,4 56 0 0,4
10.07.2020 08:00:00 12,2 8,4 11,6 14,1 15,1 16 8 25 13 NNE 1009,6 39 0 0,0
10.07.2020 07:00:00 12,2 8,3 11,9 14,1 15,2 19 10 27 15 NE 1009,5 55 0 0,0
10.07.2020 06:00:00 12,1 8,0 11,5 14,1 15,3 19 10 26 14 NE 1009,9 64 0 0,0
10.07.2020 05:00:00 11,9 8,1 11,3 14,1 15,4 18 10 30 16 NE 1010,2 65 0 0,0
10.07.2020 04:00:00 11,6 8,2 10,8 14,2 15,6 19 10 27 14 NE 1010,6 55 0 0,0
10.07.2020 03:00:00 11,0 8,1 9,2 14,4 15,8 18 10 24 13 NNE 1011,0 59 0 0,0
10.07.2020 02:00:00 11,6 8,7 9,6 14,7 16,0 18 10 27 14 NNE 1011,3 54 0 0,0
10.07.2020 01:00:00 12,7 8,5 12,0 14,9 16,1 20 11 26 14 NNE 1011,7 62 0 0,0
10.07.2020 00:00:00 12,2 7,9 10,6 15,2 16,3 22 12 27 15 NNE 1012,0 74 0 0,0
09.07.2020 23:00:00 12,5 7,8 11,0 15,7 16,5 19 10 31 17 N 1011,9 64 0 0,0
09.07.2020 22:00:00 13,7 7,6 12,7 16,3 16,6 22 12 31 17 N 1011,8 65 29 0,0
09.07.2020 21:00:00 14,9 7,9 15,1 16,8 16,8 24 13 32 18 NNW 1011,8 65 60 0,0
09.07.2020 20:00:00 15,3 8,1 16,5 17,5 16,8 26 14 32 18 NNW 1011,7 55 60 0,0
09.07.2020 19:00:00 15,2 8,2 17,0 18,2 16,7 23 13 31 17 NNW 1011,9 60 19 0,0
09.07.2020 18:00:00 16,3 8,0 21,4 18,8 16,5 23 12 31 17 NNW 1012,0 42 60 0,0
09.07.2020 17:00:00 16,2 8,1 22,4 18,4 16,3 21 11 30 16 NNW 1012,2 67 38 0,0
09.07.2020 16:00:00 15,3 9,0 19,0 18,2 16,1 7 4 18 10 NNW 1012,5 55 2 0,0
09.07.2020 15:00:00 15,7 9,2 23,7 18,1 15,8 7 4 12 6 SSE 1012,5 62 4 0,0
09.07.2020 14:00:00 14,5 9,0 18,9 17,5 15,6 6 4 20 11 SE 1012,8 56 0 0,0
09.07.2020 13:00:00 14,7 9,2 19,3 17,0 15,3 11 6 19 10 ESE 1013,0 61 7 0,0
09.07.2020 12:00:00 14,1 9,0 17,5 16,0 15,2 12 7 18 10 SE 1013,4 60 0 0,0
09.07.2020 11:00:00 13,7 8,8 15,9 15,5 15,1 12 6 21 11 ESE 1013,5 71 0 0,0
09.07.2020 10:00:00 13,7 8,7 16,0 15,2 15,0 14 8 24 13 ESE 1013,9 74 0 0,0
09.07.2020 09:00:00 13,6 8,9 14,9 14,8 15,0 16 9 24 13 E 1013,8 57 8 0,0
09.07.2020 08:00:00 13,2 8,4 13,6 14,3 15,0 15 8 23 12 E 1014,1 64 0 0,0
09.07.2020 07:00:00 13,0 8,8 12,3 14,1 15,1 6 3 11 6 NE 1014,4 55 0 0,0
09.07.2020 06:00:00 12,0 7,9 10,3 14,0 15,2 8 4 10 5 NW 1014,7 46 0 0,0
09.07.2020 05:00:00 12,3 8,0 10,7 14,1 15,3 6 4 11 6 NNW 1014,7 50 0 0,0
09.07.2020 04:00:00 11,9 7,7 10,5 14,1 15,5 8 4 15 8 NNW 1014,8 56 0 0,0
09.07.2020 03:00:00 12,1 7,9 10,5 14,3 15,6 10 6 19 10 WNW 1015,1 60 0 0,0
09.07.2020 02:00:00 12,3 7,5 10,8 14,5 15,8 14 8 21 11 NW 1015,3 60 0 0,0
09.07.2020 01:00:00 12,2 7,6 10,7 14,7 16,0 14 8 24 13 WNW 1015,7 60 0 0,0
09.07.2020 00:00:00 12,6 8,0 11,0 15,1 16,2 18 10 26 14 NW 1015,7 52 0 0,0
08.07.2020 23:00:00 12,6 8,0 11,2 15,6 16,4 19 10 30 16 NW 1015,7 50 0 0,0
08.07.2020 22:00:00 13,2 8,2 12,8 16,1 16,6 19 10 29 16 NW 1015,4 53 0 0,0
08.07.2020 21:00:00 13,0 7,5 12,3 16,7 16,7 22 12 33 18 WNW 1015,3 66 32 0,0
08.07.2020 20:00:00 13,5 7,3 13,8 17,4 16,8 29 15 37 20 WNW 1015,1 55 35 0,0
08.07.2020 19:00:00 15,1 7,6 18,6 18,0 16,8 29 15 43 23 WNW 1015,0 59 57 0,0
08.07.2020 18:00:00 13,9 7,4 15,7 18,7 16,6 28 15 44 24 WNW 1015,1 66 41 0,0
08.07.2020 17:00:00 15,1 6,9 20,0 18,8 16,4 32 17 45 24 NW 1015,1 60 33 0,0
08.07.2020 16:00:00 15,1 6,7 20,9 19,1 16,1 31 17 46 25 WNW 1014,8 55 48 0,0
08.07.2020 15:00:00 15,1 7,0 20,6 19,0 15,7 32 18 45 25 WNW 1014,5 63 43 0,0
08.07.2020 14:00:00 15,4 6,3 21,3 18,3 15,3 32 17 46 25 WNW 1014,3 75 57 0,0
08.07.2020 13:00:00 15,1 6,3 19,3 17,1 15,0 33 18 45 24 WNW 1014,0 47 22 0,0
08.07.2020 12:00:00 14,8 5,8 19,4 16,1 14,7 31 17 43 23 WNW 1013,6 48 41 0,0
08.07.2020 11:00:00 14,0 5,7 16,4 15,0 14,5 31 17 45 24 WNW 1013,5 66 8 0,0
08.07.2020 10:00:00 13,4 5,9 14,8 14,5 14,4 34 18 50 27 WNW 1013,1 62 36 0,0
08.07.2020 09:00:00 13,1 7,0 13,3 13,6 14,4 30 16 45 25 NW 1012,8 47 3 0,0
08.07.2020 08:00:00 13,0 6,8 13,1 13,4 14,5 34 18 46 25 WNW 1012,5 53 13 0,0
08.07.2020 07:00:00 12,7 6,3 12,3 13,2 14,6 29 16 45 24 WNW 1012,3 75 10 0,0
08.07.2020 06:00:00 12,1 7,1 11,0 13,3 14,7 30 16 54 29 WNW 1012,5 47 0 0,0
08.07.2020 05:00:00 12,4 7,3 10,8 13,4 14,9 32 17 43 23 W 1012,5 60 0 0,0
08.07.2020 04:00:00 12,5 7,7 10,9 13,6 15,0 26 14 42 23 WNW 1012,8 47 0 0,0
08.07.2020 03:00:00 12,6 7,9 10,9 13,8 15,1 34 18 48 26 WNW 1013,0 49 0 0,0
08.07.2020 02:00:00 12,4 8,4 10,6 13,9 15,3 29 16 44 24 WNW 1013,2 50 0 0,0
08.07.2020 01:00:00 12,2 8,7 10,4 14,1 15,4 26 14 45 25 WNW 1013,2 45 0 0,0
08.07.2020 00:00:00 12,5 8,4 10,5 14,3 15,6 28 15 42 23 WNW 1013,4 48 0 0,0
07.07.2020 23:00:00 11,8 9,2 10,2 14,6 15,8 26 14 53 28 WNW 1013,4 44 0 0,5
07.07.2020 22:00:00 11,5 9,1 10,6 15,0 15,9 29 16 52 28 W 1013,5 14 0 1,9
07.07.2020 21:00:00 13,1 8,5 12,8 15,5 16,1 29 16 40 22 WNW 1013,7 55 0 0,0
07.07.2020 20:00:00 12,1 9,6 11,4 15,9 16,1 26 14 55 30 WNW 1014,0 38 0 0,1
07.07.2020 19:00:00 14,0 7,1 14,5 16,3 16,2 37 20 48 26 WNW 1013,8 57 0 0,0
07.07.2020 18:00:00 14,2 7,2 14,7 16,7 16,2 36 19 50 27 WNW 1013,9 57 0 0,0
07.07.2020 17:00:00 14,1 8,9 15,0 16,9 16,1 31 17 47 26 W 1014,2 52 0 0,0
07.07.2020 16:00:00 14,3 8,9 15,2 17,2 16,0 37 20 48 26 WNW 1014,2 51 3 0,0
07.07.2020 15:00:00 15,7 9,3 19,6 17,9 15,7 34 18 48 26 W 1014,0 50 44 0,0
07.07.2020 14:00:00 15,0 10,0 15,5 17,5 15,4 36 19 50 27 W 1013,9 47 54 0,0
07.07.2020 13:00:00 14,3 11,0 15,3 15,5 15,3 31 17 44 24 WSW 1014,1 39 9 1,8
07.07.2020 12:00:00 12,0 10,3 11,6 15,5 15,2 29 15 55 30 WSW 1014,7 7 5 0,9
07.07.2020 11:00:00 14,7 9,2 15,1 15,3 15,1 36 19 53 28 WSW 1014,8 52 0 0,0
07.07.2020 10:00:00 14,8 8,9 16,4 15,0 15,1 35 19 49 26 WSW 1015,3 39 0 0,0
07.07.2020 09:00:00 14,3 8,4 15,8 14,5 15,0 33 18 48 26 WSW 1015,5 37 4 0,0
07.07.2020 08:00:00 13,9 7,9 15,1 14,1 15,1 29 15 50 27 W 1015,7 42 33 0,0
07.07.2020 07:00:00 13,2 7,4 13,2 13,9 15,2 33 18 50 27 W 1015,9 41 7 0,0
07.07.2020 06:00:00 12,9 7,7 12,4 13,8 15,3 34 19 45 24 W 1015,7 36 1 0,0

tt = temperature
td = dewpoint
tt 5cm = temperature 5cm
tt -5cm = temperature -5cm
tt -20cm = temperature -20cm
ff = wind speed
fx = gusts
dd = wind direction
ppp = reduced air pressure
vv = visibility
sd = sunshine duration
rr = precipitation

Next stations